[[{"header":{"parameterUnit":"m.s-1","parameterCategory":1,"la1":30.2991,"la2":30.254,"lo1":-89.0895,"lo2":-89.0444,"dy":0.0017,"dx":0.0017,"nx":28,"ny":28,"refTime":"2023-10-21T21:00:00:Z","depth":0,"parameterNumber":2,"parameterNumberName":"U-component_of_WINDS"},"data":[0,0,0,0,0,0,0,0,0,0,0,0,0,0,0,0,0,0,0,0,0,0,0,0,0,0,0,0,0,0,0,0,0,0,0,0,0,0,0,0,0,0,0,0,0,0,0,0,0,0,0,0,0,0,0,0,0,0,0.1464,0.1465,0,0.1535,0.1536,0.1536,0.1557,0.1556,0.1556,0.1555,0.1629,0.1631,0.1633,0,0,0,0,0,0,0,0,0,0,0,0,0,0.1348,0.135,0.1464,0.1465,0.1466,0.1535,0.1536,0.1537,0.1557,0.1556,0.1556,0.1555,0.1628,0.1631,0.1633,0,0,0,0,0,0,0,0,0,0,0,0,0,0.1406,0.1351,0.1464,0.1484,0.1487,0.1534,0.1536,0.1537,0.1557,0.1556,0.1556,0.1555,0.1627,0.163,0.1634,0.1667,0,0,0.1644,0.1646,0,0,0,0,0,0,0,0,0.1403,0.1411,0.148,0.1483,0.1486,0.1536,0.1521,0.158,0.1557,0.153,0.1555,0.1555,0.1598,0.1604,0.1619,0.167,0.1673,0.1645,0.1647,0.1648,0.1649,0,0,0,0,0,0,0,0.1399,0.1408,0.1492,0.1481,0.1485,0.149,0.1498,0.1533,0.1567,0.1532,0.1534,0.1542,0.16,0.1615,0.1621,0.1674,0.1644,0.1648,0.165,0.1651,0.1757,0.1758,0,0,0,0,0,0,0.1391,0.1404,0.149,0.1494,0.1442,0.1493,0.1501,0.1521,0.1566,0.1573,0.1543,0.1543,0.161,0.1616,0.1623,0.1665,0.1648,0.1651,0.1653,0.1756,0.1757,0.1758,0,0,0,0,0,0,0.1389,0.1399,0.1487,0.145,0.1461,0.1495,0.1517,0.1522,0.1538,0.1574,0.158,0.1552,0.1609,0.1618,0.1656,0.1668,0.1653,0.1656,0.1755,0.1756,0.1757,0.1749,0,0,0,0,0,0,0.1385,0.1398,0.141,0.145,0.1463,0.1518,0.1518,0.1524,0.1544,0.1545,0.1585,0.1591,0.161,0.165,0.1659,0.1672,0.1659,0.1754,0.1756,0.1757,0.1748,0.175,0.1751,0,0,0,0,0,0.1381,0.1405,0.1411,0.1421,0.148,0.1519,0.1526,0.1548,0.1545,0.1558,0.1581,0.1589,0.1665,0.1654,0.1664,0.1679,0.1754,0.1755,0.1757,0.1748,0.1749,0.1751,0,0,0,0,0,0,0.1367,0.1411,0.1418,0.1455,0.1483,0.1522,0.1539,0.1549,0.1578,0.1578,0.1603,0.1612,0.1648,0.1667,0.1654,0.1713,0.171,0.1713,0.1699,0.1701,0.1702,0.1697,0.1662,0,0,0,0,0,0.1368,0.1395,0.1433,0.1462,0.1476,0.1505,0.1523,0.1537,0.1567,0.1579,0.1605,0.1634,0.1664,0.1684,0.1714,0.1751,0.176,0.1766,0.1767,0.1768,0.1771,0.1793,0.1796,0.1763,0.1763,0.1763,0,0,0.137,0.1398,0.1414,0.146,0.1483,0.1512,0.1515,0.1545,0.1566,0.1583,0.162,0.164,0.1674,0.1712,0.173,0.1729,0.1782,0.177,0.1771,0.1773,0.1795,0.1798,0.1801,0.1764,0.1764,0.1764,0,0,0.139,0.1413,0.144,0.1464,0.1499,0.1518,0.1525,0.1562,0.1576,0.1614,0.1627,0.1653,0.1705,0.1729,0.1748,0.1777,0.1786,0.1786,0.1792,0.1813,0.1816,0.1818,0.1829,0.1832,0.1789,0.1789,0.1789,0,0.1388,0.1432,0.1453,0.1483,0.1503,0.1519,0.1547,0.1569,0.1612,0.1626,0.1624,0.169,0.1714,0.1758,0.1765,0.1779,0.1788,0.1781,0.1813,0.1816,0.1819,0.1829,0.1833,0.1788,0.1788,0.1788,0.1788,0,0.1429,0.1458,0.1476,0.1517,0.1539,0.1568,0.1594,0.1614,0.1626,0.1646,0.1684,0.1714,0.175,0.1761,0.1773,0.1807,0.1805,0.1808,0.1805,0.1821,0.1831,0.1835,0.1788,0.1788,0.1788,0.1788,0,0,0.144,0.1493,0.15,0.1519,0.1559,0.1582,0.1612,0.1647,0.1664,0.1693,0.1719,0.1762,0.1765,0.1787,0.1802,0.182,0.1841,0.1821,0.1822,0.1824,0.188,0.1878,0.1882,0.1847,0.1848,0.1849,0.1877,0,0.1465,0.1518,0.1539,0.1582,0.161,0.1626,0.1652,0.168,0.1699,0.1726,0.1747,0.1778,0.1779,0.1792,0.1811,0.1834,0.1853,0.1833,0.1872,0.1873,0.1863,0.1887,0.1885,0.191,0.1882,0.1882,0.1883,0,0.15,0.153,0.1576,0.1613,0.1625,0.1648,0.1682,0.1708,0.174,0.1752,0.1776,0.179,0.1822,0.1817,0.1862,0.1848,0.1865,0.1879,0.1881,0.1885,0.1879,0.1893,0.1919,0.1923,0.1889,0.1889,0.1888,0,0.1505,0.1556,0.159,0.1606,0.165,0.1666,0.1685,0.1716,0.1736,0.1766,0.1779,0.1813,0.1831,0.1857,0.188,0.1874,0.1923,0.1919,0.1934,0.1934,0.1944,0.1943,0.1974,0.1955,0.1955,0.1955,0.1955,0,0.153,0.1557,0.1593,0.1614,0.1645,0.1669,0.17,0.172,0.1748,0.1773,0.179,0.1813,0.1842,0.187,0.1888,0.1922,0.193,0.1942,0.1946,0.1941,0.1939,0.1952,0.1951,0.1956,0.1955,0.1955,0.1955,0,0.154,0.1565,0.1603,0.1642,0.1652,0.1673,0.1707,0.1728,0.1748,0.178,0.1789,0.1821,0.1854,0.1879,0.1923,0.1935,0.1972,0.1976,0.1961,0.1963,0.1977,0.1975,0.2017,0.2024,0.2,0.2,0.2001,0,0.1554,0.1576,0.1617,0.1635,0.1654,0.1683,0.1704,0.1728,0.1749,0.1787,0.1804,0.1838,0.1867,0.192,0.1947,0.198,0.1986,0.1998,0.1991,0.1984,0.1986,0.1985,0.1987,0.1999,0.1999,0.1999,0.1999,0,0.1577,0.1589,0.1617,0.1651,0.1675,0.1702,0.173,0.1744,0.1774,0.1796,0.183,0.1853,0.1897,0.1931,0.1967,0.1988,0.1999,0.2001,0.2007,0.2001,0.1991,0.1997,0.1964,0.2,0.2,0.2,0.2,0.2,0.159,0.161,0.1642,0.1674,0.1697,0.1723,0.1745,0.1768,0.1797,0.1834,0.1847,0.1883,0.1914,0.1964,0.1985,0.2013,0.2013,0.2021,0.2023,0.2024,0.2024,0.1986,0.202,0.202,0.202,0.202,0.202,0,0.1614,0.1636,0.1665,0.1703,0.1728,0.1736,0.1767,0.1788,0.1819,0.1847,0.1875,0.1915,0.1948,0.1978,0.2013,0.203,0.2036,0.2038,0.2037,0.2042,0.2022,0.2014,0.2033,0.2033,0.2033,0.2033,0.2033,0.2033,0.163,0.1664,0.1679,0.1726,0.1747,0.1782,0.1799,0.1823,0.1846,0.1889,0.1917,0.1936,0.1965,0.2002,0.2034,0.2042,0.2054,0.2055,0.2064,0.2045,0.2043,0.2042,0.2034,0.2057,0.2057,0.2082,0.2082,0.2082]},{"header":{"parameterUnit":"m.s-1","parameterCategory":1,"la1":30.2991,"la2":30.254,"lo1":-89.0895,"lo2":-89.0444,"dy":0.0017,"dx":0.0017,"nx":28,"ny":28,"refTime":"2023-10-21T21:00:00:Z","depth":0,"parameterNumber":3,"parameterNumberName":"V-component_of_WINDS"},"data":[0,0,0,0,0,0,0,0,0,0,0,0,0,0,0,0,0,0,0,0,0,0,0,0,0,0,0,0,0,0,0,0,0,0,0,0,0,0,0,0,0,0,0,0,0,0,0,0,0,0,0,0,0,0,0,0,0,0,1.8929,1.8928,0,1.8845,1.8844,1.8843,1.8772,1.8771,1.8771,1.877,1.868,1.8678,1.8677,0,0,0,0,0,0,0,0,0,0,0,0,0,1.9026,1.9025,1.8929,1.8928,1.8927,1.8845,1.8844,1.8843,1.8772,1.8771,1.877,1.877,1.8681,1.8679,1.8677,0,0,0,0,0,0,0,0,0,0,0,0,0,1.8967,1.9024,1.8929,1.8882,1.8877,1.8845,1.8844,1.8843,1.8772,1.8771,1.877,1.8769,1.8681,1.8679,1.8676,1.8684,0,0,1.8669,1.8667,0,0,0,0,0,0,0,0,1.8971,1.8964,1.889,1.8885,1.888,1.8818,1.8845,1.8789,1.8773,1.8812,1.877,1.8769,1.8727,1.872,1.8707,1.8679,1.8676,1.8668,1.8667,1.8666,1.8665,0,0,0,0,0,0,0,1.8975,1.8967,1.8896,1.8889,1.8883,1.8864,1.8855,1.8834,1.8777,1.8809,1.8803,1.8794,1.8723,1.8709,1.8704,1.8674,1.8668,1.8666,1.8665,1.8664,1.8649,1.865,0,0,0,0,0,0,1.8987,1.8971,1.8898,1.8893,1.8923,1.8863,1.8853,1.8839,1.8777,1.8766,1.8795,1.8791,1.8714,1.8707,1.8701,1.8705,1.8666,1.8663,1.8662,1.8648,1.8649,1.865,0,0,0,0,0,0,1.8989,1.8981,1.8902,1.8931,1.8919,1.8863,1.8848,1.8838,1.8824,1.8767,1.8756,1.8792,1.8713,1.8704,1.8689,1.8701,1.8662,1.866,1.8646,1.8648,1.865,1.8715,0,0,0,0,0,0,1.8992,1.8982,1.8985,1.8931,1.8918,1.8892,1.8849,1.8837,1.882,1.8814,1.8761,1.8751,1.8712,1.8693,1.8686,1.8697,1.8658,1.8645,1.8647,1.8649,1.8711,1.8719,1.8725,0,0,0,0,0,1.8996,1.9006,1.8985,1.8977,1.892,1.8893,1.8885,1.8841,1.8821,1.8823,1.8787,1.8752,1.8701,1.8692,1.8684,1.8694,1.8644,1.8647,1.8649,1.8708,1.8717,1.8725,0,0,0,0,0,0,1.9061,1.8998,1.8974,1.8968,1.8937,1.8881,1.8882,1.8852,1.8825,1.882,1.8765,1.8754,1.8744,1.8717,1.8708,1.8698,1.8668,1.8669,1.8716,1.8724,1.8731,1.8737,1.8656,0,0,0,0,0,1.9075,1.9059,1.9004,1.9003,1.8989,1.8939,1.8925,1.8894,1.8859,1.8845,1.8807,1.8774,1.875,1.8736,1.8711,1.8708,1.8695,1.8711,1.8717,1.8723,1.8725,1.8721,1.8728,1.8659,1.8659,1.8659,0,0,1.9102,1.9066,1.9059,1.9015,1.8988,1.8972,1.8928,1.8913,1.89,1.8842,1.8826,1.8797,1.8756,1.8747,1.8741,1.8724,1.8741,1.8726,1.8732,1.873,1.8725,1.8731,1.8737,1.866,1.866,1.866,0,0,1.9145,1.9116,1.9112,1.9086,1.9045,1.9012,1.9011,1.8961,1.894,1.8923,1.8879,1.8863,1.8823,1.8796,1.8777,1.8811,1.8778,1.8804,1.8839,1.8837,1.8842,1.8847,1.8859,1.8864,1.8806,1.8806,1.8806,0,1.9184,1.916,1.9114,1.9102,1.9084,1.9033,1.9028,1.9004,1.8957,1.8945,1.8928,1.8878,1.8846,1.8831,1.8839,1.8825,1.8822,1.881,1.8845,1.885,1.8853,1.8864,1.8869,1.881,1.8809,1.8809,1.8809,0,1.921,1.9194,1.9195,1.9153,1.9135,1.9127,1.908,1.9067,1.9038,1.9006,1.899,1.895,1.8917,1.8911,1.8881,1.8891,1.8882,1.8856,1.8824,1.8864,1.8873,1.8877,1.8815,1.8813,1.8812,1.8811,0,0,1.929,1.9224,1.9225,1.9205,1.9157,1.9143,1.9133,1.9101,1.9092,1.9061,1.905,1.9019,1.8995,1.8973,1.894,1.8938,1.8968,1.8912,1.891,1.8924,1.8976,1.8997,1.9002,1.8946,1.8947,1.8948,1.898,0,1.9325,1.9304,1.9264,1.9256,1.924,1.9192,1.9182,1.9151,1.9122,1.9104,1.907,1.9049,1.9019,1.9005,1.9001,1.8966,1.8978,1.8963,1.8936,1.8935,1.8947,1.9007,1.9028,1.906,1.8983,1.8984,1.8984,0,1.9362,1.9336,1.9327,1.9281,1.9273,1.9266,1.9234,1.9217,1.9181,1.916,1.9137,1.9102,1.9087,1.9059,1.9039,1.9029,1.9016,1.8997,1.8997,1.8992,1.8962,1.9004,1.907,1.9075,1.899,1.8989,1.8989,0,1.9422,1.9384,1.9374,1.9359,1.9305,1.9301,1.9278,1.9241,1.9225,1.9197,1.9186,1.9157,1.914,1.9118,1.9076,1.9059,1.906,1.9028,1.9041,1.9042,1.9043,1.9044,1.9108,1.9035,1.9035,1.9035,1.9035,0,1.9464,1.9461,1.9401,1.9394,1.9389,1.9342,1.9338,1.931,1.9278,1.9265,1.9221,1.9209,1.9154,1.9136,1.9102,1.9091,1.9084,1.9066,1.9057,1.907,1.9072,1.906,1.9056,1.9036,1.9036,1.9036,1.9035,0,1.953,1.9489,1.9475,1.9426,1.9413,1.9412,1.9368,1.936,1.9329,1.9313,1.9307,1.9257,1.9234,1.9189,1.9153,1.913,1.9126,1.911,1.9139,1.9133,1.9149,1.9149,1.9207,1.9213,1.9137,1.9138,1.9139,0,1.956,1.9556,1.9507,1.9496,1.9475,1.9458,1.9442,1.9395,1.9381,1.934,1.9337,1.9311,1.9287,1.9252,1.9212,1.9184,1.9167,1.919,1.9163,1.9176,1.9168,1.9169,1.9168,1.9196,1.9197,1.9198,1.9199,0,1.9617,1.9598,1.9577,1.955,1.9533,1.9509,1.9483,1.9476,1.9423,1.9409,1.9385,1.9367,1.9331,1.9306,1.9272,1.9247,1.9214,1.9208,1.9209,1.9222,1.9239,1.9231,1.9156,1.9207,1.9206,1.9205,1.9205,1.9204,1.9666,1.9661,1.9626,1.9604,1.958,1.9557,1.9547,1.9515,1.9495,1.9464,1.9437,1.9416,1.938,1.9333,1.931,1.9292,1.9276,1.9279,1.9279,1.928,1.9286,1.9243,1.9286,1.9286,1.9285,1.9285,1.9285,0,1.9721,1.9697,1.9678,1.9643,1.9627,1.9599,1.9568,1.9556,1.9538,1.9509,1.9487,1.946,1.9436,1.9394,1.9366,1.936,1.9344,1.9354,1.9354,1.9349,1.9302,1.9303,1.9367,1.9367,1.9367,1.9367,1.9367,1.9367,1.9748,1.9738,1.9715,1.9693,1.9668,1.9648,1.9633,1.9611,1.9587,1.956,1.954,1.9514,1.9479,1.9448,1.9424,1.9413,1.9404,1.9419,1.9403,1.936,1.9352,1.9344,1.9346,1.9418,1.9418,1.9451,1.9452,1.9452]}]]